Погода в Санта-Тересе

Коста-Рика     9°38′23″N   85°09′49″W
темп.,
°C
ветер,
м/с
пор.,
м/с
влажн.,
%
обл.,
%
осадки,
мм/ч
давл.,
гПа
погр.,
м
9 августа, вт
вт900:00+25ссв1187100 12.3 101063
03:00+24св228797 2.8 100945
06:00+25всв118698 3.8 101175
09:00+28вюв1176100 0.0 1011599
12:00+28ююз3277100 0.6 1010570
15:00+28юз3279100 2.4 1008528
18:00+26юз3387100 9.4 1009123
21:00+25сз1193100 7.4 101167
10 августа, ср
ср1000:00+25с228899 7.6 101068
03:00+25св118799 0.0 100954
06:00+25всв2288100 0.0 101181
09:00+27всв1276100 0.0 1012516
12:00+28ююв3375100 0.7 1011721
15:00+28ю337994 2.2 1009606
18:00+25юв1289100 9.3 101143
21:00+25ююв2291100 2.8 1013114
11 августа, чт
чт1100:00+24ю2293100 3.5 1012124
03:00+24ссв1191100 0.1 1011126
06:00+24с1290100 0.2 1011117
09:00+27зсз127934 0.1 1012538
12:00+27зюз328075 3.7 1011578
15:00+27зюз2282100 7.1 1009332
18:00+25ю0186100 12.4 101050
21:00+25юв3388100 3.8 1013110
12 августа, пт
пт1200:00+24вюв2393100 6.1 1013181
03:00+23вюв1295100 2.1 1012125
06:00+23вюв1194100 6.6 101271
09:00+24вюв2391100 4.6 1014151
12:00+23юв2292100 9.0 1014158
15:00+23ссв1192100 3.6 1012156
18:00+23ссв2290100 3.9 1012114
21:00+23св0089100 0.1 1014102
13 августа, сб
сб1300:00+23вюв0088100 0.1 1013129
03:00+23ссв2289100 0.0 1011112
06:00+23св228884 0.0 1012108
09:00+26ююв1180100 0.0 1014497
12:00+27ююз338066 1.1 1013686
15:00+27ю3275100 0.6 1011670
18:00+25ююв228395 0.7 1012209
21:00+24в118497 0.0 1013184